Tracking 28790 objects as of 19-Apr-2024
HD Live streaming from Space Station
objects crossing your sky now

FENGYUN 1C DEB

Track FENGYUN 1C DEB now!
10-day predictions


NORAD ID: 30079
Int'l Code: 1999-025QG
Perigee: 839.5 km
Apogee: 962.9 km
Inclination: 99.1 °
Period: 102.9 minutes
Semi major axis: 7272 km
RCS: 0.052 m2 (small)
Launch date: May 10, 1999
Source: People's Republic of China (PRC)
Launch site: Taiyaun Space Center, China (TSC)

Note: This is SATELLITE DEBRIS
Your satellite tracking list
Your tracking list is empty




NASA's NSSDC Master Catalog

Two Line Element Set (TLE):
1 30079U 99025QG  24109.65186516  .00000906  00000-0  62721-3 0  9994
2 30079  99.1241 162.6224 0084877 163.4441 322.1535 13.99917980880965
Source of the keplerian elements: AFSPC